NO-83
1 40655U 15025E 18199.30987172 +.00013604 +00000-0 +14170-3 0 04139
2 40655 054.9747 195.0499 0101349 223.2488 136.0696 15.58730574061139
DEORBITSAIL
1 40719U 15032E 18199.69780731 .00000302 00000-0 50655-4 0 9991
2 40719 97.9416 92.6969 0015431 310.8693 49.1179 14.76468026162828
NUDT-PHONESAT
1 40900U 15049B 18199.80958394 .00001643 00000-0 76141-4 0 9993
2 40900 97.4406 207.6981 0011604 280.4030 79.5898 15.21454080156724
XW-2A
1 40903U 15049E 18199.80908325 .00001510 00000-0 39129-4 0 9993
2 40903 97.3818 234.9769 0012320 277.1865 82.7981 15.40621592158675
XW-2C
1 40906U 15049H 18199.81885754 .00000479 00000-0 28947-4 0 9996
2 40906 97.4599 202.7314 0013345 281.9171 78.0565 15.15239181156287
XW-2D
1 40907U 15049J 18199.83415473 .00000516 00000-0 30796-4 0 9993
2 40907 97.4573 202.4398 0012686 279.3853 80.5945 15.15393776156296
LILACSAT-2
1 40908U 15049K 18199.87928940 .00000280 00000-0 19210-4 0 9992
2 40908 97.4686 201.8017 0014387 281.4713 78.4903 15.13540784156169
XW-2F
1 40910U 15049M 18199.75761035 .00000683 00000-0 38303-4 0 9993
2 40910 97.4571 203.7375 0013337 274.5465 85.4245 15.16609382156243
XW-2B
1 40911U 15049N 18199.85284214 .00000540 00000-0 32112-4 0 9998
2 40911 97.4608 203.0077 0012603 280.0230 79.9580 15.15336726156196
DCBB
1 40912U 15049P 18199.78300043 .00000866 00000-0 44821-4 0 9991
2 40912 97.4498 206.6651 0013607 260.8910 218.0531 15.18835505156461
TW-1C
1 40926U 15051B 18199.78393318 .00007426 00000-0 13615-3 0 9991
2 40926 97.1804 241.9846 0010681 150.5809 270.4510 15.49523517158207
TW-1A
1 40928U 15051D 18199.80921326 .00002086 00000-0 56287-4 0 9992
2 40928 97.1826 233.1717 0010953 198.2932 249.1582 15.38859665157644
IO-86
1 40931U 15052B 18199.66925206 .00000650 00000-0 14707-5 0 9999
2 40931 6.0026 285.6348 0013294 90.6618 269.5116 14.76579745151662
LQSat
1 40958U 15057A 18199.75197687 .00000032 00000-0 12762-4 0 9999
2 40958 97.9388 272.1972 0016940 233.9157 126.0485 14.73038563149495
AO-85
1 40967U 15058D 18199.23720036 +.00000014 +00000-0 +19953-4 0 03918
2 40967 064.7801 097.0094 0209677 304.1752 053.9652 14.75744398058236
ATHENOXAT-1
1 41168U 15077C 18199.16331019 .00001687 00000-0 55363-4 0 9990
2 41168 14.9921 153.5771 0012104 110.7476 65.1893 15.12850531143079
ChubuSat-2
1 41338U 16012B 18199.85606729 .00000296 00000-0 16406-4 0 9998
2 41338 31.0033 112.4377 0013725 26.5921 333.5417 14.99998541132594
ChubuSat-3
1 41339U 16012C 18199.79934603 .00000234 00000-0 11503-4 0 9992
2 41339 31.0114 111.3491 0013436 32.8940 327.2533 15.00184346132570
Horyu-4
1 41340U 16012D 18199.84099211 .00000439 00000-0 26852-4 0 9997
2 41340 31.0054 105.5219 0013875 47.1393 313.0406 15.01013778132658
OUFTI-1
1 41458U 16025C 18199.69216521 .00001610 00000-0 86745-4 0 9998
2 41458 98.1347 264.2234 0170975 42.5627 318.8699 15.04791050122173
e-st@r-II
1 41459U 16025D 18199.70479232 .00001546 00000-0 83959-4 0 9993
2 41459 98.1349 264.0642 0171637 43.3093 318.1477 15.04512959122164
AAUSAT4
1 41460U 16025E 18199.71930523 .00002487 00000-0 13107-3 0 9993
2 41460 98.1289 264.6311 0162082 38.8706 322.4040 15.05991902122234
LO-87
1 41557U 16033B 18199.80210606 .00001132 00000-0 44429-4 0 9990
2 41557 97.4367 283.9577 0015343 51.0981 309.1624 15.27745347118988
NuSat2
1 41558U 16033C 18199.79871171 .00001077 00000-0 41735-4 0 9994
2 41558 97.4390 284.0788 0014403 49.9075 310.3425 15.28276717118970
Lapan A3
1 41603U 16040E 18199.75870495 .00000261 00000-0 15420-4 0 9993
2 41603 97.4087 260.7057 0014627 125.3610 17.7522 15.19583318114875
Swayam
1 41607U 16040J 18199.41061629 +.00001355 +00000-0 +61684-4 0 9999
2 41607 097.4110 261.9617 0015219 125.3391 234.9270 15.22325763114858
Pratham
1 41783U 16059A 18199.73656930 .00000023 00000-0 13884-4 0 9994
2 41783 98.1153 260.7830 0033478 359.0088 1.1042 14.62932495 96576
AlSat 1N
1 41789U 16059G 18199.73570242 .00000066 00000-0 21664-4 0 9993
2 41789 98.1171 262.0699 0028253 351.1705 8.8996 14.64166462 96638
ScatSat
1 41790U 16059H 18199.55406036 -.00000007 +00000-0 +95222-5 0 9992
2 41790 098.2572 246.7711 0018247 359.7345 000.3838 14.50862030095737
TY-1
1 41844U 16066D 18199.87110050 .00001209 00000-0 53767-4 0 9994
2 41844 97.4050 206.4154 0013971 289.4729 185.3223 15.23345931 93701
Pegasus-1
1 41846U 16066F 18199.58402755 +.00000210 +00000-0 +41830-4 0 9999
2 41846 098.7519 228.6851 0368855 153.6172 208.4329 14.37362680088415
CAS-2T
1 41847U 16066G 18199.70429526 .00000008 00000-0 11328-4 0 9993
2 41847 98.7479 229.2648 0366865 150.7084 211.5230 14.37906065 88856
TO-89
1 41932U 98067KU 18199.34750863 .00034008 00000-0 19616-3 0 9994
2 41932 51.6298 180.0095 0003792 357.1716 2.9263 15.78324568 85684
AOBA-V3LOX3
1 41935U 98067KX 18199.40010344 +.00054858 +00000-0 +24827-3 0 9992
2 41935 051.6337 174.2953 0003652 012.0354 348.0735 15.83392157085862
EO-88
1 42017U 17008BX 18199.40545829 +.00001203 +00000-0 +51804-4 0 9993
2 42017 097.4462 264.2759 0004695 269.8465 090.2235 15.24535313078825
HAVELSAT
1 42700U 98067LH 18199.42414567 .00023924 00000-0 17698-3 0 9998
2 42700 51.6340 194.8297 0005072 21.2098 338.9110 15.72802994 66936
SOMP2
1 42701U 98067LJ 18199.56023638 .00018265 00000-0 14285-3 0 9990
2 42701 51.6340 195.7473 0004941 17.9679 342.1493 15.71681133 66923
PHOENIX
1 42706U 98067LP 18199.42780860 .00018043 00000-0 14931-3 0 9999
2 42706 51.6341 197.1249 0001653 1.6061 358.4941 15.70339160 66813
X-CubeSat
1 42707U 98067LQ 18199.45618136 .00027939 00000-0 19990-3 0 9993
2 42707 51.6302 194.2139 0002137 10.9566 349.1479 15.73500712 66840
qbee
1 42708U 98067LR 18199.54857442 .00022877 00000-0 17150-3 0 9991
2 42708 51.6345 194.9100 0002065 12.2607 347.8441 15.72528555 66808
ZA-AeroSat
1 42713U 98067LU 18199.41967857 .00017616 00000-0 15445-3 0 9995
2 42713 51.6335 200.0590 0001961 328.8160 31.2721 15.68950526 66435
LINK
1 42714U 98067LV 18199.39435501 .00082537 00000-0 34625-3 0 9994
2 42714 51.6222 185.3647 0003139 26.4586 333.6577 15.84830327 66736
UPSat
1 42716U 98067LX 18199.41644643 .00045488 00000-0 25719-3 0 9996
2 42716 51.6304 189.4413 0004233 26.9954 333.1266 15.78627986 66700
SpaceCube
1 42717U 98067LY 18199.51340795 .00024038 00000-0 18094-3 0 9995
2 42717 51.6313 195.3920 0003906 21.4183 338.6978 15.72394046 65879
Hoopoe
1 42718U 98067LZ 18199.42412789 .00035240 00000-0 22898-3 0 9993
2 42718 51.6304 192.5407 0004172 18.8847 341.2306 15.75603505 65907
Challenger
1 42721U 98067MA 18199.42687142 .00234226 33241-4 52067-3 0 9997
2 42721 51.6231 177.9967 0005594 41.4571 318.6861 15.97419538 65799
NJUST-1
1 42722U 98067MB 18199.56379903 .00014442 00000-0 13285-3 0 9994
2 42722 51.6344 201.0487 0005767 359.8775 0.2219 15.67938288 65500
UNSW-EC0
1 42723U 98067MC 18199.53483680 .00038941 00000-0 24183-3 0 9999
2 42723 51.6367 191.8256 0005663 12.4626 347.6513 15.76579239 65601
